Powrót do katalogu

STARLINK-31791

AktywnyŁącznośćVLEO
NORAD 59637·PAYLOAD·🇺🇸 United States

Wystrzelony May 3, 2024 z Cape Canaveral Space Force Station

Loading…

Następne Przeloty (najbliższe 24 godziny)

TLE

ŚwieżeSource: CelesTrak SupGP

Epoka: Sep 14, 2026, 21:08 UTC

1 59637C 24082G   26257.88104167 -.00047339  00000+0 -17146-2 0  2578
2 59637  43.0005 151.1268 0001222 268.2932 283.9751 15.27602149    10

Śledź STARLINK-31791 w czasie rzeczywistym z AllMySat

Download on the App Store